FW0065 Weather Reports


time (UTC)temp
F
wind
direction
speed
knots
gust
knots
rain 1hr
in
rain 24hr
in
rain mn
in
humidity
%
barometer
mb
20260505080005 63 0 0.0 0.0 0.01 0.06 0.06 95 1019.8
20260505075026 63 0 0.0 0.0 0.02 0.06 0.06 95 1019.9
20260505074004 63 0 0.0 0.0 0.02 0.06 0.06 94 1019.7
20260505073005 63 0 0.0 0.0 0.02 0.06 0.06 94 1019.4
20260505072025 63 0 0.0 0.0 0.02 0.06 0.06 94 1019.4
20260505071003 64 0 0.0 0.0 0.02 0.06 0.06 93 1019.6
20260505070026 64 0 0.0 0.0 0.02 0.06 0.06 93 1019.5
20260505065004 64 0 0.0 0.0 0.02 0.05 0.05 92 1019.5
20260505064005 64 0 0.0 0.0 0.02 0.05 0.05 92 1019.6
20260505063025 64 260 0.0 0.9 0.03 0.05 0.05 91 1019.3
20260505062004 64 268 0.0 1.7 0.05 0.05 0.05 91 1019.3
20260505061003 64 259 0.0 2.6 0.04 0.04 0.04 90 1019.3
20260505060004 65 258 0.9 2.6 0.03 0.03 0.03 89 1019.2
20260505055004 65 265 0.0 2.6 0.03 0.03 0.03 89 1019.1
20260505054004 66 266 0.0 3.5 0.02 0.02 0.02 88 1019.1
20260505053005 66 249 0.0 1.7 0.02 0.02 0.02 87 1018.8
20260505052004 67 236 0.0 1.7 0.00 0.00 0.00 85 1018.7
20260505051005 67 236 0.0 1.7 0.00 0.00 0.00 85 1018.7
20260505041005 68 229 0.9 3.5 0.00 0.00 0.00 79 1018.0
20260505040005 70 240 0.9 7.0 0.00 0.00 0.00 75 1018.2
20260505035005 70 234 3.5 10.4 0.00 0.00 0.00 71 1018.2
20260505034005 71 235 1.7 6.1 0.00 0.00 0.00 69 1018.2
20260505033005 72 238 2.6 7.8 0.00 0.00 0.00 66 1018.1
20260505032028 73 242 0.9 3.5 0.00 0.00 0.00 62 1017.9
20260505031005 74 330 0.9 5.2 0.00 0.00 0.00 61 1017.8
20260505030005 75 21 0.9 7.0 0.00 0.00 0.00 60 1017.9
20260505025007 75 24 0.0 2.6 0.00 0.00 0.00 60 1018.0
20260505024027 74 8 0.9 3.5 0.00 0.00 0.00 61 1018.3
20260505023005 74 327 0.9 4.3 0.00 0.00 0.00 61 1018.4
20260505022005 74 300 0.9 3.5 0.00 0.00 0.00 62 1018.5
20260505021005 74 10 0.9 3.5 0.00 0.00 0.00 62 1018.7
20260505020005 74 352 0.9 2.6 0.00 0.00 0.00 61 1018.7
20260505015005 74 297 0.0 1.7 0.00 0.00 0.00 60 1018.9
20260505014026 74 292 0.9 5.2 0.00 0.00 0.00 61 1019.1
20260505013005 74 329 0.9 3.5 0.00 0.00 0.00 63 1019.3
20260505012026 72 346 0.9 3.5 0.00 0.00 0.00 66 1019.5
20260505011005 72 347 0.9 2.6 0.00 0.00 0.00 68 1019.8
20260505010026 71 332 0.9 3.5 0.00 0.00 0.00 69 1019.9
20260505005005 71 7 0.0 2.6 0.00 0.00 0.00 70 1020.0
20260505004005 70 4 0.0 1.7 0.00 0.00 0.00 71 1019.9
20260505003005 70 346 0.0 2.6 0.00 0.00 0.00 70 1020.1
20260505002006 71 3 0.0 1.7 0.00 0.00 0.00 70 1019.9
20260505001006 71 8 0.0 1.7 0.00 0.00 0.00 70 1020.1
20260505000005 70 4 0.0 1.7 0.00 0.00 0.00 70 1020.3
20260504235026 70 24 0.0 0.9 0.00 0.00 0.00 71 1020.2
20260504234005 69 18 0.0 1.7 0.00 0.00 0.00 71 1020.4
20260504233005 69 339 0.0 0.9 0.00 0.00 0.00 72 1020.4
20260504232005 69 343 0.0 1.7 0.00 0.00 0.00 73 1020.4
20260504231005 70 5 0.0 2.6 0.00 0.00 0.00 70 1020.6
20260504230006 69 4 0.0 0.9 0.00 0.00 0.00 70 1020.7
20260504225004 68 224 0.0 0.9 0.00 0.00 0.00 66 1020.6
20260504224025 66 184 0.0 0.9 0.00 0.00 0.00 69 1020.6
20260504223027 65 0 0.0 0.0 0.00 0.00 0.00 70 1020.6
20260504222025 64 188 0.0 0.9 0.00 0.00 0.00 71 1020.7
20260504221004 63 0 0.0 0.0 0.00 0.00 0.00 73 1020.8
20260504220026 62 188 0.0 1.7 0.00 0.00 0.00 73 1020.8
20260504215004 62 167 0.0 1.7 0.00 0.00 0.00 73 1020.6
20260504214004 61 147 0.0 0.9 0.00 0.00 0.00 73 1020.4
20260504213028 60 0 0.0 0.0 0.00 0.00 0.00 74 1020.4
20260504212006 60 0 0.0 0.0 0.00 0.00 0.00 75 1020.5
20260504211004 60 0 0.0 0.0 0.00 0.00 0.00 75 1020.4
20260504210006 59 0 0.0 0.0 0.00 0.00 0.00 75 1020.4
20260504205004 59 162 0.0 0.9 0.00 0.00 0.00 76 1020.1
20260504204006 59 197 0.0 0.9 0.00 0.00 0.00 76 1020.1
20260504203004 59 202 0.0 0.9 0.00 0.00 0.00 77 1020.1
20260504202004 59 202 0.0 0.9 0.00 0.00 0.00 77 1020.0
20260504201005 59 196 0.0 0.9 0.00 0.00 0.00 77 1019.9
20260504200005 58 195 0.0 0.9 0.00 0.00 0.00 77 1019.7
20260504195004 58 198 0.0 0.9 0.00 0.00 0.00 77 1019.7
20260504194004 58 0 0.0 0.0 0.00 0.00 0.00 76 1019.7
20260504193006 58 0 0.0 0.0 0.00 0.00 0.00 77 1019.7
20260504192026 58 0 0.0 0.0 0.00 0.00 0.00 77 1019.5
20260504191005 57 206 0.0 0.9 0.00 0.00 0.00 78 1019.5
20260504190004 57 213 0.0 0.9 0.00 0.00 0.00 78 1019.4
20260504185006 57 0 0.0 0.0 0.00 0.00 0.00 78 1019.3
20260504184004 56 0 0.0 0.0 0.00 0.00 0.00 78 1019.2
20260504183004 56 213 0.0 0.9 0.00 0.00 0.00 78 1019.1
20260504182004 56 0 0.0 0.0 0.00 0.00 0.00 77 1019.2
20260504181004 57 0 0.0 0.0 0.00 0.00 0.00 76 1019.0
20260504180004 56 0 0.0 0.0 0.00 0.00 0.00 77 1019.0
20260504175004 56 214 0.0 0.9 0.00 0.00 0.00 77 1019.1
20260504174025 55 223 0.9 2.6 0.00 0.00 0.00 78 1019.2
20260504173004 54 0 0.0 0.0 0.00 0.00 0.00 78 1018.9
20260504172004 54 232 0.0 0.9 0.00 0.00 0.00 78 1018.8
20260504171004 54 196 0.0 1.7 0.00 0.00 0.00 78 1018.8
20260504151027 57 0 0.0 0.0 0.00 0.00 0.00 72 1018.6
20260504141004 59 0 0.0 0.0 0.00 0.00 0.00 66 1019.3
20260504082004 72 0 0.0 0.0 0.00 0.00 0.00 51 1018.6
20260504081004 72 338 0.0 0.9 0.00 0.00 0.00 51 1018.6